Spring Mountain Youth Camp, Nevada Weather observations

Data are for 60 minute period ending at time listed.
 Day   Time   Solar   Ave.   Ave.  Ave.  Vector  Max.   Baro.   Total    
  of    of     Rad.   Air    Rel.  Wind   Wind   Wind  Press.  Precip.   
Year   Day            Temp.  Hum.  Speed  Dir.   Gust                    
2016   (PST)  Kw/m2    F      %     mph   deg.    mph    mb.     in.     
-------------------------------------------------------------------------
 340    9:00   0.26  99999.0   99999    5.9   99999   99999.0   99999.0   99999.00 
 340   10:00   0.43  99999.0   99999    6.0   99999   99999.0   99999.0   99999.00 
 340   11:00   0.53  99999.0   99999    5.6   99999   99999.0   99999.0   99999.00 
 340   12:00   0.60  99999.0   99999    6.2   99999   99999.0   99999.0   99999.00 
 340   13:00   0.62  99999.0   99999    5.4   99999   99999.0   99999.0   99999.00 
 340   14:00   0.49  99999.0   99999    4.2   99999   99999.0   99999.0   99999.00 
 340   15:00   0.25  99999.0   99999    3.8   99999   99999.0   99999.0   99999.00 
 340   16:00   0.07  99999.0   99999    3.6   99999   99999.0   99999.0   99999.00 
 340   17:00   0.01  99999.0   99999    2.7   99999   99999.0   99999.0   99999.00 
 340   18:00   0.00  99999.0   99999    2.7   99999   99999.0   99999.0   99999.00 
 340   19:00   0.00  99999.0   99999    2.0   99999   99999.0   99999.0   99999.00 
 340   20:00   0.00  99999.0   99999    1.8   99999   99999.0   99999.0   99999.00 
 340   21:00   0.00  99999.0   99999    3.8   99999   99999.0   99999.0   99999.00 
 340   22:00   0.00  99999.0   99999    3.4   99999   99999.0   99999.0   99999.00 
 340   23:00   0.00  99999.0   99999    4.8   99999   99999.0   99999.0   99999.00 
 341    0:00   0.00  99999.0   99999    4.3   99999   99999.0   99999.0   99999.00 
 341    1:00   0.00  99999.0   99999    5.2   99999   99999.0   99999.0   99999.00 
 341    2:00   0.00  99999.0   99999    2.6   99999   99999.0   99999.0   99999.00 
 341    3:00   0.00  99999.0   99999    3.1   99999   99999.0   99999.0   99999.00 
 341    4:00   0.00  99999.0   99999    1.8   99999   99999.0   99999.0   99999.00 
 341    5:00   0.00  99999.0   99999    2.8   99999   99999.0   99999.0   99999.00 
 341    6:00   0.00  99999.0   99999    1.9   99999   99999.0   99999.0   99999.00 
 341    7:00   0.00  99999.0   99999    1.5   99999   99999.0   99999.0   99999.00 
 341    8:00   0.10  99999.0   99999    1.5   99999   99999.0   99999.0   99999.00 

Return to Spring Mountain Youth Camp graphs page.


Western Regional Climate Center,wrcc@dri.edu